DAL2026 KDCA-KSYR

Flight info

Callsign DAL2026
Flight time 0h 51m
Altitude 31000
Route HORTO4 JERES Q221 MICAH CFB
Aircraft A21N/M-SDE2E3FGHIRWXY/LB1

Departure

Time 2026-04-26 01:59
Airport Ronald Reagan Washington National Airport (KDCA)

Arrival

Time 2026-04-26 02:50
Airport Syracuse Hancock International Airport (KSYR)
Time Latitude Longitude Altitude Speed Heading
2026-04-26 01:09 38.85236 -77.04058 29 ft 0 kts 260°
2026-04-26 01:51 38.85236 -77.04057 29 ft 1 kts 260°
2026-04-26 01:52 38.85240 -77.04027 29 ft 4 kts 267°
2026-04-26 01:52 38.85235 -77.03997 29 ft 4 kts 310°
2026-04-26 01:52 38.85216 -77.03983 29 ft 2 kts 355°
2026-04-26 01:52 38.85214 -77.03983 29 ft 1 kts 355°
2026-04-26 01:55 38.85226 -77.03984 29 ft 4 kts 355°
2026-04-26 01:55 38.85276 -77.03989 29 ft 10 kts 356°
2026-04-26 01:56 38.85360 -77.03995 29 ft 14 kts 357°
2026-04-26 01:56 38.85471 -77.04010 29 ft 13 kts 351°
2026-04-26 01:56 38.85576 -77.04034 30 ft 18 kts 354°
2026-04-26 01:56 38.85664 -77.04035 30 ft 7 kts 18°
2026-04-26 01:57 38.85723 -77.03988 31 ft 13 kts 21°
2026-04-26 01:57 38.85827 -77.03984 31 ft 17 kts 357°
2026-04-26 01:57 38.85957 -77.03974 30 ft 16 kts 15°
2026-04-26 01:57 38.86043 -77.03945 29 ft 20 kts 17°
2026-04-26 01:58 38.86064 -77.03867 29 ft 14 kts 164°
2026-04-26 01:58 38.86003 -77.03859 29 ft 15 kts 175°
2026-04-26 01:58 38.85695 -77.03831 30 ft 89 kts 175°
2026-04-26 01:58 38.84811 -77.03734 49 ft 157 kts 175°
2026-04-26 01:59 38.83699 -77.03671 692 ft 161 kts 173°
2026-04-26 01:59 38.82582 -77.03608 1417 ft 164 kts 178°
2026-04-26 01:59 38.81362 -77.03592 1780 ft 187 kts 177°
2026-04-26 01:59 38.80001 -77.03575 2306 ft 203 kts 178°
2026-04-26 02:00 38.78516 -77.03566 2806 ft 226 kts 182°
2026-04-26 02:00 38.76924 -77.03933 3266 ft 246 kts 203°
2026-04-26 02:00 38.75492 -77.05234 3961 ft 255 kts 231°
2026-04-26 02:00 38.74600 -77.07192 4801 ft 257 kts 248°
2026-04-26 02:01 38.74231 -77.09383 5677 ft 258 kts 270°
2026-04-26 02:01 38.74573 -77.11586 6512 ft 261 kts 293°
2026-04-26 02:01 38.75650 -77.13528 7319 ft 267 kts 316°
2026-04-26 02:01 38.77158 -77.14971 8120 ft 273 kts 324°
2026-04-26 02:02 38.78746 -77.16332 8932 ft 277 kts 324°
2026-04-26 02:02 38.80353 -77.17730 9722 ft 281 kts 323°
2026-04-26 02:02 38.81988 -77.19183 10286 ft 294 kts 323°
2026-04-26 02:02 38.83721 -77.20740 10597 ft 314 kts 323°
2026-04-26 02:03 38.85570 -77.22410 10871 ft 335 kts 323°
2026-04-26 02:03 38.87531 -77.24193 11168 ft 355 kts 323°
2026-04-26 02:03 38.89599 -77.26074 11408 ft 373 kts 323°
2026-04-26 02:03 38.91764 -77.28050 11678 ft 388 kts 323°
2026-04-26 02:04 38.93986 -77.30085 12162 ft 394 kts 323°
2026-04-26 02:04 38.96228 -77.32136 12730 ft 397 kts 323°
2026-04-26 02:04 38.98487 -77.34211 13334 ft 401 kts 322°
2026-04-26 02:04 39.00763 -77.36307 13926 ft 404 kts 322°
2026-04-26 02:05 39.03056 -77.38411 14436 ft 406 kts 323°
2026-04-26 02:05 39.05364 -77.40527 15026 ft 409 kts 323°
2026-04-26 02:05 39.07690 -77.42659 15695 ft 412 kts 323°
2026-04-26 02:05 39.10143 -77.44585 16308 ft 416 kts 332°
2026-04-26 02:06 39.12878 -77.45869 16906 ft 422 kts 344°
2026-04-26 02:06 39.15804 -77.46371 17505 ft 428 kts 355°
2026-04-26 02:06 39.18795 -77.46351 18087 ft 431 kts 358°
2026-04-26 02:06 39.21805 -77.46269 18580 ft 435 kts 358°
2026-04-26 02:07 39.24836 -77.46201 19017 ft 438 kts 358°
2026-04-26 02:07 39.27899 -77.46143 19429 ft 442 kts 358°
2026-04-26 02:07 39.30945 -77.46086 19850 ft 445 kts 357°
2026-04-26 02:07 39.34094 -77.46033 20265 ft 449 kts 357°
2026-04-26 02:08 39.37235 -77.45984 20676 ft 453 kts 357°
2026-04-26 02:08 39.40354 -77.45930 21129 ft 457 kts 357°
2026-04-26 02:08 39.43551 -77.45877 21588 ft 461 kts 357°
2026-04-26 02:08 39.46781 -77.45825 22029 ft 466 kts 356°
2026-04-26 02:09 39.50033 -77.45772 22452 ft 470 kts 356°
2026-04-26 02:09 39.53320 -77.45718 22843 ft 474 kts 356°
2026-04-26 02:09 39.56636 -77.45665 23247 ft 478 kts 356°
2026-04-26 02:09 39.59978 -77.45611 23630 ft 482 kts 356°
2026-04-26 02:10 39.63346 -77.45554 23923 ft 486 kts 356°
2026-04-26 02:10 39.66739 -77.45497 24228 ft 489 kts 356°
2026-04-26 02:10 39.70149 -77.45438 24565 ft 491 kts 356°
2026-04-26 02:10 39.73564 -77.45383 24955 ft 491 kts 356°
2026-04-26 02:11 39.76977 -77.45324 25330 ft 491 kts 356°
2026-04-26 02:11 39.80393 -77.45265 25753 ft 491 kts 355°
2026-04-26 02:11 39.83811 -77.45209 26184 ft 491 kts 355°
2026-04-26 02:11 39.87221 -77.45154 26585 ft 490 kts 355°
2026-04-26 02:12 39.90634 -77.45100 26958 ft 490 kts 355°
2026-04-26 02:12 39.94052 -77.45043 27335 ft 491 kts 355°
2026-04-26 02:12 39.97420 -77.44987 27717 ft 491 kts 355°
2026-04-26 02:12 40.00840 -77.44930 28119 ft 491 kts 355°
2026-04-26 02:13 40.04253 -77.44878 28482 ft 491 kts 355°
2026-04-26 02:13 40.07679 -77.44818 28852 ft 492 kts 355°
2026-04-26 02:13 40.11106 -77.44756 29228 ft 492 kts 354°
2026-04-26 02:13 40.14538 -77.44493 29571 ft 499 kts
2026-04-26 02:14 40.17932 -77.43381 29898 ft 509 kts 16°
2026-04-26 02:14 40.21184 -77.41474 30212 ft 513 kts 21°
2026-04-26 02:14 40.24380 -77.39399 30601 ft 512 kts 21°
2026-04-26 02:14 40.27564 -77.37331 30946 ft 510 kts 21°
2026-04-26 02:15 40.30753 -77.35274 31046 ft 511 kts 21°
2026-04-26 02:15 40.37140 -77.31183 31046 ft 510 kts 21°
2026-04-26 02:16 40.43517 -77.27093 31041 ft 510 kts 21°
2026-04-26 02:16 40.49850 -77.23050 31035 ft 509 kts 21°
2026-04-26 02:17 40.56237 -77.18978 31046 ft 511 kts 21°
2026-04-26 02:17 40.62623 -77.14843 31045 ft 511 kts 21°
2026-04-26 02:18 40.68998 -77.10697 31050 ft 510 kts 21°
2026-04-26 02:18 40.75377 -77.06580 31042 ft 510 kts 20°
2026-04-26 02:19 40.81769 -77.02515 31046 ft 510 kts 20°
2026-04-26 02:19 40.88153 -76.98414 31061 ft 510 kts 21°
2026-04-26 02:20 40.94510 -76.94243 31053 ft 510 kts 21°
2026-04-26 02:20 41.00854 -76.90027 31074 ft 510 kts 21°
2026-04-26 02:21 41.07234 -76.85947 31070 ft 509 kts 20°
2026-04-26 02:21 41.13579 -76.81836 31063 ft 511 kts 21°
2026-04-26 02:22 41.19955 -76.77638 31059 ft 512 kts 21°
2026-04-26 02:22 41.26327 -76.73458 31074 ft 510 kts 21°
2026-04-26 02:23 41.32685 -76.69226 31075 ft 510 kts 21°
2026-04-26 02:23 41.39044 -76.65018 31066 ft 510 kts 21°
2026-04-26 02:24 41.45396 -76.60818 31085 ft 509 kts 21°
2026-04-26 02:24 41.51732 -76.56621 31082 ft 508 kts 21°
2026-04-26 02:25 41.58066 -76.52413 31084 ft 508 kts 21°
2026-04-26 02:25 41.64405 -76.48193 31088 ft 510 kts 21°
2026-04-26 02:26 41.70767 -76.43950 31090 ft 509 kts 21°
2026-04-26 02:26 41.77061 -76.39735 31093 ft 509 kts 21°
2026-04-26 02:27 41.83387 -76.35475 31109 ft 507 kts 21°
2026-04-26 02:27 41.89702 -76.31257 31099 ft 507 kts 21°
2026-04-26 02:28 41.96011 -76.27017 31095 ft 507 kts 21°
2026-04-26 02:28 42.02319 -76.22763 31033 ft 507 kts 21°
2026-04-26 02:28 42.05467 -76.20637 30744 ft 506 kts 21°
2026-04-26 02:29 42.08614 -76.18507 30370 ft 504 kts 22°
2026-04-26 02:29 42.11745 -76.16385 29938 ft 503 kts 22°
2026-04-26 02:29 42.14873 -76.14265 29448 ft 503 kts 22°
2026-04-26 02:29 42.18003 -76.12144 29014 ft 504 kts 22°
2026-04-26 02:30 42.21136 -76.10031 28552 ft 502 kts 22°
2026-04-26 02:30 42.24263 -76.07939 28099 ft 502 kts 22°
2026-04-26 02:30 42.27392 -76.05860 27653 ft 501 kts 22°
2026-04-26 02:30 42.30492 -76.03815 27220 ft 501 kts 22°
2026-04-26 02:31 42.33632 -76.01757 26792 ft 501 kts 22°
2026-04-26 02:31 42.36774 -75.99714 26362 ft 501 kts 22°
2026-04-26 02:31 42.39909 -75.97692 25830 ft 498 kts 22°
2026-04-26 02:31 42.43042 -75.95692 25146 ft 498 kts 22°
2026-04-26 02:32 42.46179 -75.93713 24408 ft 497 kts 22°
2026-04-26 02:32 42.49310 -75.91763 23663 ft 493 kts 22°
2026-04-26 02:32 42.52410 -75.89855 22774 ft 485 kts 22°
2026-04-26 02:32 42.55465 -75.87991 21882 ft 479 kts 22°
2026-04-26 02:33 42.58500 -75.86160 20923 ft 477 kts 22°
2026-04-26 02:33 42.61546 -75.84345 19961 ft 479 kts 22°
2026-04-26 02:33 42.64579 -75.82554 19387 ft 471 kts 22°
2026-04-26 02:33 42.67552 -75.80807 18788 ft 460 kts 22°
2026-04-26 02:34 42.70443 -75.79113 18096 ft 445 kts 21°
2026-04-26 02:34 42.73339 -75.77913 17326 ft 428 kts
2026-04-26 02:34 42.76246 -75.77642 16530 ft 412 kts 354°
2026-04-26 02:34 42.79019 -75.78326 15701 ft 400 kts 340°
2026-04-26 02:35 42.81498 -75.79913 14746 ft 392 kts 326°
2026-04-26 02:35 42.83553 -75.82318 13753 ft 388 kts 310°
2026-04-26 02:35 42.85023 -75.85365 12673 ft 385 kts 295°
2026-04-26 02:35 42.85991 -75.88740 11844 ft 379 kts 290°
2026-04-26 02:36 42.86785 -75.92110 11288 ft 368 kts 288°
2026-04-26 02:36 42.87518 -75.95405 10722 ft 358 kts 288°
2026-04-26 02:36 42.88230 -75.98617 10221 ft 349 kts 288°
2026-04-26 02:36 42.88920 -76.01710 10004 ft 332 kts 288°
2026-04-26 02:37 42.89561 -76.04589 9954 ft 310 kts 288°
2026-04-26 02:37 42.90169 -76.07332 9794 ft 298 kts 288°
2026-04-26 02:37 42.90765 -76.10025 9500 ft 295 kts 288°
2026-04-26 02:37 42.91358 -76.12701 9182 ft 294 kts 288°
2026-04-26 02:38 42.91949 -76.15369 8854 ft 292 kts 288°
2026-04-26 02:38 42.92528 -76.18018 8523 ft 291 kts 288°
2026-04-26 02:38 42.93105 -76.20667 8191 ft 290 kts 288°
2026-04-26 02:38 42.93682 -76.23299 7864 ft 289 kts 288°
2026-04-26 02:39 42.94257 -76.25926 7505 ft 288 kts 288°
2026-04-26 02:39 42.94825 -76.28535 7149 ft 286 kts 288°
2026-04-26 02:39 42.95392 -76.31134 6770 ft 285 kts 288°
2026-04-26 02:39 42.95958 -76.33724 6395 ft 284 kts 288°
2026-04-26 02:40 42.96515 -76.36272 6001 ft 283 kts 288°
2026-04-26 02:40 42.97083 -76.38832 5550 ft 281 kts 288°
2026-04-26 02:40 42.97647 -76.41380 5078 ft 280 kts 288°
2026-04-26 02:40 42.98214 -76.43914 4590 ft 279 kts 288°
2026-04-26 02:41 42.98795 -76.46432 4093 ft 277 kts 288°
2026-04-26 02:41 42.99388 -76.48925 3601 ft 275 kts 288°
2026-04-26 02:41 43.00277 -76.51214 3147 ft 272 kts 311°
2026-04-26 02:41 43.01750 -76.52700 2977 ft 256 kts 338°
2026-04-26 02:42 43.03424 -76.53078 2946 ft 236 kts
2026-04-26 02:42 43.04917 -76.52361 2961 ft 233 kts 37°
2026-04-26 02:42 43.05998 -76.50809 2977 ft 216 kts 56°
2026-04-26 02:42 43.06821 -76.49172 2976 ft 207 kts 58°
2026-04-26 02:43 43.07960 -76.45587 2985 ft 205 kts 73°
2026-04-26 02:43 43.08396 -76.43833 2973 ft 185 kts 73°
2026-04-26 02:43 43.08806 -76.42215 2969 ft 178 kts 73°
2026-04-26 02:44 43.09210 -76.40614 3032 ft 176 kts 73°
2026-04-26 02:44 43.09583 -76.39118 3005 ft 155 kts 73°
2026-04-26 02:44 43.09898 -76.37798 2972 ft 142 kts 78°
2026-04-26 02:44 43.10005 -76.36488 2993 ft 137 kts 90°
2026-04-26 02:45 43.10031 -76.35201 3018 ft 134 kts 89°
2026-04-26 02:45 43.10073 -76.33927 3009 ft 134 kts 89°
2026-04-26 02:45 43.10119 -76.32650 3002 ft 135 kts 89°
2026-04-26 02:45 43.10161 -76.31372 3002 ft 134 kts 89°
2026-04-26 02:46 43.10203 -76.30092 2999 ft 135 kts 89°
2026-04-26 02:46 43.10234 -76.29225 3000 ft 135 kts 89°
2026-04-26 02:46 43.10278 -76.27981 2944 ft 129 kts 89°
2026-04-26 02:46 43.10309 -76.26745 2506 ft 133 kts 91°
2026-04-26 02:47 43.10354 -76.25459 2255 ft 136 kts 90°
2026-04-26 02:47 43.10403 -76.24170 2100 ft 135 kts 91°
2026-04-26 02:47 43.10440 -76.22881 2079 ft 136 kts 91°
2026-04-26 02:47 43.10493 -76.21582 2084 ft 137 kts 91°
2026-04-26 02:48 43.10537 -76.20287 1948 ft 136 kts 92°
2026-04-26 02:48 43.10577 -76.18996 1633 ft 135 kts 92°
2026-04-26 02:48 43.10621 -76.17705 1191 ft 136 kts 90°
2026-04-26 02:48 43.10668 -76.16408 943 ft 136 kts 89°
2026-04-26 02:49 43.10735 -76.15120 776 ft 135 kts 88°
2026-04-26 02:49 43.10786 -76.13839 598 ft 134 kts 90°
2026-04-26 02:49 43.10825 -76.12566 450 ft 134 kts 90°
2026-04-26 02:49 43.10858 -76.11419 431 ft 100 kts 90°
2026-04-26 02:50 43.10883 -76.10658 424 ft 49 kts 85°
2026-04-26 02:50 43.10952 -76.10567 425 ft 10 kts 351°
2026-04-26 02:50 43.11009 -76.10622 422 ft 12 kts 280°
2026-04-26 02:50 43.11013 -76.10747 422 ft 14 kts 267°
2026-04-26 02:51 43.11086 -76.10823 423 ft 16 kts
2026-04-26 02:51 43.11170 -76.10824 423 ft 0 kts 359°
2026-04-26 02:51 43.11230 -76.10825 424 ft 14 kts 360°
2026-04-26 02:52 43.11333 -76.10827 424 ft 16 kts 358°
2026-04-26 02:52 43.11388 -76.10832 426 ft 0 kts 355°
2026-04-26 02:53 43.11401 -76.10850 422 ft 7 kts 292°
2026-04-26 02:53 43.11400 -76.10941 429 ft 11 kts 286°
2026-04-26 02:53 43.11416 -76.10959 419 ft 2 kts
2026-04-26 02:54 43.11447 -76.10963 426 ft 5 kts 358°
2026-04-26 02:54 43.11451 -76.10963 423 ft 0 kts 359°